Skip Page Navigation
NASA JPL Caltech
NASA Logo - Jet Propulsion Laboratory + View the NASA Portal
+ Near-Earth Object (NEO) Program
Search JPL
JPL Home Earth Solar System Stars & Galaxies Technology
JPL Solar System Dynamics
BODIES ORBITS EPHEMERIDES TOOLS PHYSICAL DATA DISCOVERY FAQ SITE MAP
JPL Small-Body Database Browser
Search: [ help ]  
152561 (1991 RB)
Classification: Apollo [NEO, PHA]          SPK-ID: 2152561
Ephemeris | Orbit Diagram | Orbital Elements | Physical Parameters | Discovery Circumstances | Close-Approach Data ]

[ hide orbit diagram ]
Orbit Diagram
Note: Make sure you have Java enabled on your browser to see the applet. This applet is provided as a 3D orbit visualization tool. The applet was implemented using 2-body methods, and hence should not be used for determining accurate long-term trajectories (over several years or decades) or planetary encounter circumstances. For accurate long-term ephemerides, please instead use our Horizons system.
Orbit Viewer

Additional Notes: the orbits shown in the applet are color coded. The planets are white lines, and the asteroid/comet is a blue line. The bright white line indicates the portion of the orbit that is above the ecliptic plane, and the darker portion is below the ecliptic plane. Likewise for the asteroid/comet orbit, the light blue indicates the portion above the ecliptic plane, and the dark blue the portion below the ecliptic plane.

Orbit Viewer applet originally written and kindly provided by Osamu Ajiki (AstroArts), and further modified by Ron Baalke (JPL).


Orbital Elements at Epoch 2456400.5 (2013-Apr-18.0) TDB
Reference: JPL 23 (heliocentric ecliptic J2000)
 Element Value Uncertainty (1-sigma)   Units 
e .4857101143521277 1.0987e-07  
a 1.454431265889964 5.9906e-09 AU
q .7479992894172397 1.5896e-07 AU
i 19.58512820478664 3.6374e-05 deg
node 359.398938596734 3.5229e-05 deg
peri 68.84587511232526 4.1589e-05 deg
M 79.9579668757589 3.6113e-05 deg
tp 2456258.202433945854
(2012-Nov-26.70243395)
6.3468e-05 JED
period 640.675667242648
1.75
3.9583e-06
1.084e-08
d
yr
n .5619067781196916 3.4716e-09 deg/d
Q 2.160863242362688 8.9003e-09 AU
  Orbit Determination Parameters
   # obs. used (total)      70  
   data-arc span      13022 days (35.65 yr)  
   first obs. used      1977-08-19  
   last obs. used      2013-04-14  
   planetary ephem.      DE405  
   SB-pert. ephem.      SB405-CPV-2  
   condition code      0  
   fit RMS      .6793  
   data source      ORB  
   producer      Otto Matic  
   solution date      2013-Apr-29 15:37:11  

Additional Information
 Earth MOID = .0388242 AU 
 T_jup = 4.448 
[ show covariance matrix ]

Ephemeris | Orbit Diagram | Orbital Elements | Physical Parameters | Discovery Circumstances | Close-Approach Data ]

Physical Parameter Table
Parameter Symbol Value Units Sigma Reference Notes
absolute magnitude H 19.015 mag .40741 23 autocmod 2.5c

152561 (1991 RB)          Discovered 1991-Sep-04 by McNaught, R. H. at Siding Spring (413)
Reference: 20070402/Numbers.arcLast Updated: 2007-04-04

[ show close-approach data ]
Ephemeris | Orbit Diagram | Orbital Elements | Physical Parameters | Discovery Circumstances | Close-Approach Data ]
ABOUT SSD CREDITS/AWARDS PRIVACY/COPYRIGHT GLOSSARY LINKS
FirstGov 2013-May-19 17:30 UT
(server date/time)  
NASA Home Page
Site Manager:   Donald K. Yeomans
Webmaster  Alan B. Chamberlin